Location: ??????????
(44.2167°N, 135.5333°E)
Time: 14:48:46
(UTC+00:00)

ARIANE 5 R/B - Pass Details

Date: 15 June 2025
Orbit: 615 x 647 km, 98.0° (Epoch: 11 July)

Event Time Altitude Azimuth Distance (km) Brightness Sun altitude
Exits shadow 14:34:48 37° 243° (WSW) 1,000 3.4 -22.2°
Maximum altitude 14:35:22 39° 262° (W) 971 3.5 -22.2°
Drops below altitude 10° 14:39:33 10° 332° (NNW) 2,048 6.1 -22.3°
Sets 14:41:54 0° 340° (NNW) 2,966 7.4 -22.3°
